Terminal Aerodrome Forecast
Issued by NWS Greer, SC

Home | Current Version | Previous Version | Text Only | Print | Product List | Glossary On
Versions: 1 2 3 4 5 6 7 8 9 10 11 12 13 14 15 16 17 18 19 20 21 22 23 24 25 26 27 28 29 30 31 32 33 34 35 36 37 38 39 40 41 42 43 44 45 46 47 48 49 50
000
FTUS42 KGSP 230700 AAB
TAFAVL
TAF AMD
KAVL 230738Z 2308/2406 00000KT 1/4SM FG VV002
      TEMPO 2309/2313 00000KT 1/2SM FG VV002
     FM231300 00000KT 4SM BR BKN006 BKN040
     FM231400 00000KT P6SM BKN040
     FM231500 35003KT P6SM BKN045 PROB30 2318/2324 4SM TSRA
      BKN040CB=

USA.gov is the U.S. government's official web portal to all federal, state and local government web resources and services.